User: anonymous   Login
Location: Fort Wayne
(41.1310°N, 85.1290°W)
Time: 01:23:10
(UTC-05:00)
Language:

Cosmos 1953 - Orbit

View from above orbital plane
View from above orbital plane
View from above satellite
View from above satellite

Ground track
Ground track

The orbit data is extracted from the following two-line orbital elements,

1 19210U 88050A   15028.91427694  .00002290  00000-0  16700-3 0  6203
2 19210 082.5201 156.1357 0013320 350.1696 009.9267 15.03222542446980
Epoch (UTC): 28 January 2015 21:56:33
Eccentricity: 0.0013320
inclination: 82.5201°
perigee height: 548 km
apogee height: 566 km
right ascension of ascending node: 156.1357°
argument of perigee: 350.1696°
revolutions per day: 15.03222542
mean anomaly at epoch: 9.9267°
orbit number at epoch: 44698

The dashed part of the orbit path shows where the satellite is in the earth's shadow,  

DLR